TimeEDT,TemperatureF,Dew PointF,Humidity,Sea Level PressureIn,VisibilityMPH,Wind Direction,Wind SpeedMPH,Gust SpeedMPH,PrecipitationIn,Events,Conditions,WindDirDegrees,DateUTC
12:51 AM,41.0,34.0,76,30.04,10.0,Calm,Calm,-,N/A,,Mostly Cloudy,0,2013-04-08 04:51:00
1:51 AM,41.0,35.1,79,30.05,10.0,NE,3.5,-,N/A,,Scattered Clouds,40,2013-04-08 05:51:00
2:51 AM,37.0,33.1,86,30.04,9.0,NE,4.6,-,N/A,,Partly Cloudy,50,2013-04-08 06:51:00
3:51 AM,36.0,33.1,89,30.04,9.0,ENE,5.8,-,N/A,,Clear,60,2013-04-08 07:51:00
4:51 AM,36.0,32.0,86,30.03,8.0,ENE,6.9,-,N/A,,Clear,70,2013-04-08 08:51:00
5:51 AM,33.1,30.9,92,30.04,6.0,East,5.8,-,N/A,,Clear,90,2013-04-08 09:51:00
6:51 AM,36.0,34.0,93,30.04,5.0,ESE,9.2,-,N/A,,Mostly Cloudy,120,2013-04-08 10:51:00
7:51 AM,39.9,36.0,86,30.06,6.0,ESE,9.2,-,N/A,,Mostly Cloudy,120,2013-04-08 11:51:00
8:51 AM,44.1,37.9,79,30.05,8.0,ESE,10.4,-,N/A,,Overcast,120,2013-04-08 12:51:00
9:51 AM,48.9,39.0,69,30.03,7.0,ESE,9.2,-,N/A,,Overcast,120,2013-04-08 13:51:00
10:51 AM,55.9,41.0,57,30.01,10.0,SSE,6.9,-,N/A,,Mostly Cloudy,150,2013-04-08 14:51:00
11:51 AM,59.0,43.0,55,30.00,10.0,SSE,8.1,-,N/A,,Overcast,160,2013-04-08 15:51:00
12:51 PM,66.0,46.0,48,29.95,10.0,SSE,11.5,17.3,N/A,,Mostly Cloudy,150,2013-04-08 16:51:00
1:51 PM,69.1,46.0,44,29.91,10.0,SSW,8.1,17.3,N/A,,Overcast,200,2013-04-08 17:51:00
2:51 PM,68.0,45.0,43,29.91,10.0,SSW,9.2,-,N/A,,Overcast,210,2013-04-08 18:51:00
3:51 PM,70.0,44.1,39,29.87,10.0,SSW,13.8,28.8,N/A,,Overcast,210,2013-04-08 19:51:00
4:51 PM,69.1,44.1,40,29.87,10.0,SW,15.0,27.6,N/A,,Overcast,220,2013-04-08 20:51:00
5:51 PM,69.1,46.0,44,29.88,10.0,SW,10.4,18.4,0.00,,Overcast,220,2013-04-08 21:51:00
6:51 PM,68.0,46.0,45,29.87,10.0,SSW,11.5,23.0,N/A,,Overcast,210,2013-04-08 22:51:00
7:51 PM,66.9,46.0,47,29.87,10.0,SSW,6.9,-,N/A,,Mostly Cloudy,200,2013-04-08 23:51:00
8:51 PM,66.0,46.0,48,29.88,10.0,South,6.9,-,N/A,,Mostly Cloudy,190,2013-04-09 00:51:00
9:51 PM,64.9,46.0,50,29.90,10.0,SSW,8.1,-,N/A,,Scattered Clouds,210,2013-04-09 01:51:00
10:51 PM,66.0,48.0,52,29.91,10.0,SSW,9.2,-,N/A,,Mostly Cloudy,210,2013-04-09 02:51:00
11:09 PM,66.2,48.2,52,29.91,10.0,SSW,8.1,-,N/A,Thunderstorm,Thunderstorm,210,2013-04-09 03:09:00
11:51 PM,66.0,48.9,54,29.91,10.0,SW,15.0,27.6,N/A,Thunderstorm,Thunderstorm,230,2013-04-09 03:51:00